Location: Krakow
(50.0830°N, 19.9170°E)
Time: 05:36:05
(UTC+02:00)

Tiros 1 - Pass Details

Date: 11 February 2023
Orbit: 627 x 662 km, 48.4° (Epoch: 25 March)

Event Time Altitude Azimuth Distance (km) Brightness Sun altitude
Rises 01:33:56 0° 279° (W) 2,915 - -48.8°
Reaches altitude 10° 01:36:17 10° 274° (W) 2,009 - -48.6°
Maximum altitude 01:40:46 51° 199° (SSW) 792 - -48.1°
Drops below altitude 10° 01:45:16 10° 124° (ESE) 2,020 - -47.6°
Sets 01:47:38 0° 119° (ESE) 2,933 - -47.4°
